Regional Weather Roundup
Issued by NWS Wilmington, NC

Home | Current Version | Previous Version | Text Only | Print | Product List | Glossary On
Versions: 1 2 3 4 5 6 7 8 9 10 11 12 13 14 15 16 17 18 19 20 21 22 23 24 25 26 27 28 29 30 31 32 33 34 35 36 37 38 39 40 41 42 43 44 45 46 47 48 49 50
000
ASUS42 KILM 201010
RWRILM
RWRILM
REGIONAL HOURLY WEATHER ROUNDUP
NATIONAL WEATHER SERVICE WILMINGTON NC
600 AM EDT MON OCT 20 2014

NOTE: "FAIR" INDICATES FEW OR NO CLOUDS BELOW 12,000 FEET WITH NO
SIGNIFICANT WEATHER AND/OR OBSTRUCTIONS TO VISIBILITY.

...............WFO WILMINGTON COUNTY WARNING AREA...............

......COASTAL NC AND SC COUNTIES......

CITY           SKY/WX    TMP DP  RH WIND       PRES   REMARKS
WILMINGTON     CLEAR     45  43  93 CALM      30.15R
SOUTHPORT      CLEAR     49  42  75 N5        30.14S
N MYRTLE BEACH CLEAR     46  43  89 NE5       30.14S
MYRTLE BEACH   CLEAR     52  45  76 N7        30.13F

......INLAND NC AND SC COUNTIES.......

CITY           SKY/WX    TMP DP  RH WIND       PRES   REMARKS
LUMBERTON      CLEAR     40  39  97 CALM      30.15S
ELIZABETHTOWN  CLEAR     45  41  87 CALM      30.15R
WHITEVILLE     CLEAR     43  42  94 CALM      30.15R
FLORENCE       CLEAR     46  42  86 CALM      30.14S
DARLINGTON     CLEAR     43  37  81 N3        30.16R

....................REST OF NORTH CAROLINA......................

.........EASTERN NC.........

CITY           SKY/WX    TMP DP  RH WIND       PRES   REMARKS
CAPE HATTERAS  CLEAR     48  44  86 CALM      30.15R
JACKSONVILLE   CLEAR     39  36  87 CALM      30.16S
MOREHEAD CITY  CLEAR     46  44  93 CALM      30.16R
KENANSVILLE    CLEAR     38  38 100 CALM      30.17R
NEW BERN       FOG       44  41  89 CALM      30.18R VSB 1/4
ELIZABETH CITY CLEAR     43  39  86 CALM      30.15R

.........CENTRAL NC.........

CITY           SKY/WX    TMP DP  RH WIND       PRES   REMARKS
RALEIGH DURHAM PTCLDY    42  40  92 CALM      30.15R
ROCKY MOUNT    MOCLDY    39  38  96 CALM      30.15R
ROANOKE RAPIDS NOT AVBL
FAYETTEVILLE   CLEAR     44  41  89 SW3       30.15R
HOFFMAN        CLEAR     39  39 100 N3        30.17R

.........WESTERN NC.........

CITY           SKY/WX    TMP DP  RH WIND       PRES   REMARKS
CHARLOTTE      PTCLDY    48  41  76 SE3       30.13S
GREENSBORO     PTCLDY    43  40  89 S5        30.12S
HICKORY        NOT AVBL
BOONE          NOT AVBL
ASHEVILLE      NOT AVBL

.....................REST OF SOUTH CAROLINA.....................

.........EASTERN SC.........

CITY           SKY/WX    TMP DP  RH WIND       PRES   REMARKS
CHARLESTON     PTCLDY    54  49  83 CALM      30.13R
BEAUFORT MCAS  PTCLDY    54  52  93 N3        30.11S
HILTON HEAD    NOT AVBL

.........CENTRAL SC.........

CITY           SKY/WX    TMP DP  RH WIND       PRES   REMARKS
COLUMBIA       CLEAR     44  41  89 SW3       30.13R
ORANGEBURG     CLEAR     46  43  89 CALM      30.13S
SUMTER SHAW    CLEAR     45  44  96 CALM      30.12S

.........WESTERN SC.........

CITY           SKY/WX    TMP DP  RH WIND       PRES   REMARKS
GREENVILLE     NOT AVBL
ROCK HILL      CLEAR     42  41  96 CALM      30.13S
ANDERSON       CLEAR     45  43  93 CALM      30.12R
CLEMSON        NOT AVBL
GREENWOOD      CLEAR     42  41  96 CALM      30.14R


...................COASTAL AND OFFSHORE REPORTS..................

................LOCAL PIERS AND NC RESERVE................


STATION/POSITION TIME  SKY/WX   TEMP    WIND        PRES    VSBY
                                AIR SEA DIR/SP/G
                 (UTC)          (F)     (DEG/KT/KT) (MB)    (MI)
JOHNY MRCER PIER 1000            58 74  340/  5/  6 1019.9S
NC RESRV MASNBRO 0900            52     260/  1     1020.0S
OCEAN CREST PIER 1000            53 72  350/  7/  9 1019.4F
SPRINGMAID  PIER 1000            54 71  320/  6/  7 1020.2S


................COASTAL AND OFFSHORE BUOYS................


STATION/POSITION TIME  SKY/WX   TEMP    WIND        PRES    VSBY
                                AIR SEA DIR/SP/G
                 (UTC)          (F)     (DEG/KT/KT) (MB)    (MI)
DIMNDSHOAL 41025 1000            62      10/  4/  8 1020.7R
WVE H/P(F/S)=  4/12 WND WVE H/P(F/S)=  2/ 4 SWL H/P/D(F/S/D)=  3/ 60/12

CAPE LOOKOUT     0900            60      10/  9/  9 1020.5R
ONSLOW BAY 41036 1000            64 76   80/  4/  8 1020.3S
WVE H/P(F/S)=  2/ 9 WND WVE H/P(F/S)=  2/ 4 SWL H/P/D(F/S/D)=  2/110/ 9

5 WRITEBCH 41038 0900            62 73  120/ 10/ 10   N/A
MASONBORO  41110 1000               74                N/A
WVE H/P(F/S)=  2/11 WND WVE H/P(F/S)=  2/ 9

WILM HARBR 41108 1000               73                N/A
WVE H/P(F/S)=  2/12 WND WVE H/P(F/S)=  2/ 9

27WRITEBCH 41037 0900            62 76  120/ 10/ 12 1020.3F
FRYING PAN 41013 1000            67 75   90/  4/  8 1020.7S
WVE H/P(F/S)=  2/10 WND WVE H/P(F/S)=  2/ 4 SWL H/P/D(F/S/D)=  2/ 90/10

SUNST NRSH 41024 0900            60      40/  8/ 10 1019.9F
CAPRS NRSH 41029 0900            66      60/ 10/ 12   N/A
EDISTO     41004 1000            70 79  120/  4/  8 1019.0S
WVE H/P(F/S)=  2/10 WND WVE H/P(F/S)=  2/ 4 SWL H/P/D(F/S/D)=  2/10



..........OFFSHORE BUOYS BEYOND 100 NM OFFSHORE...........
.....IN A TRIANGLE---HAT TO BERMUDA TO BAHAMAS TO HAT.....


STATION/POSITION TIME  SKY/WX   TEMP    WIND        PRES    VSBY
                                AIR SEA DIR/SP/G
                 (UTC)          (F)     (DEG/KT/KT) (MB)    (MI)
150E HAT   41001 NOT AVBL
W BERMUDA  41048 0937            73 80  350/ 10/ 16 1017.2R
WVE H/P(F/S)=  8/ 9 WND WVE H/P(F/S)=  2/ 4

ATLANTIC S 41049 0943            79 81  330/  8/ 10 1014.9R
WVE H/P(F/S)=  6/12 WND WVE H/P(F/S)=  2/ 3 SWL H/P/D(F/S/D)=  7/ 50/12

E BAHAMAS  41046 0910            80 83   10/  8/ 10 1014.0R
WVE H/P(F/S)=  5/ 9 WND WVE H/P(F/S)=  2/ 3 SWL H/P/D(F/S/D)=  5/ 60/ 9

NE BAHAMAS 41047 0851            79 82   10/  2/  2 1016.4
WVE H/P(F/S)=  4/ 9 SWL H/P/D(F/S/D)=  3/ 80/ 9

120E CANVRL41010 1000            77 80   50/ 14/ 16 1016.6S
WVE H/P(F/S)=  4/ 7 WND WVE H/P(F/S)=  3/ 5 SWL H/P/D(F/S/D)=  3/ 10/ 7


END


USA.gov is the U.S. government's official web portal to all federal, state and local government web resources and services.